{"data":{"norad_id":47760,"epoch":"2026-09-19T23:49:01.313184Z","epoch_age_seconds":70969,"freshness":"FRESH","line1":"1 47760U 21017AQ  26262.99237631 -.00000082  00000+0  91244-5 0  9998","line2":"2 47760  53.1599  32.4564 0001257  90.4334 269.6812 15.31699084307460","mean_motion":15.31699084,"eccentricity":0.0001257,"inclination_deg":53.1599,"raan_deg":32.4564,"arg_perigee_deg":90.4334,"mean_anomaly_deg":269.6812,"bstar":9.1244e-6,"rev_number":30746,"period_min":94.013244183673,"perigee_km":469.88182159381,"apogee_km":471.60362995687,"semimajor_km":6848.8797257753,"source":"CELESTRAK","updated_at":"2026-09-20T09:00:38.602311Z"}}